Location: Campillo
(40.8621°N, 4.2488°W)
Time: 17:58:42
(UTC+00:00)

Cosmos 2084 - Pass Details

Date: 26 September 2021
Orbit: 528 x 653 km, 62.8° (Epoch: 25 October)

Event Time Altitude Azimuth Distance (km) Brightness Sun altitude
Exits shadow 04:54:04 11° 203° (SSW) 1,729 5.5 -14.8°
Maximum altitude 04:57:53 64° 122° (ESE) 596 3.6 -14.1°
Drops below altitude 10° 05:01:54 10° 41° (NE) 1,814 6.7 -13.4°
Sets 05:04:09 0° 39° (NE) 2,727 7.7 -13.0°
